Location: Great Snoring
(52.8667°N, 0.8833°E)
Time: 19:48:32
(UTC+00:00)

PKM - Pass Details

Date: 19 May 2025
Orbit: 410 x 13726 km, 55.3° (Epoch: 21 June)

Event Time Altitude Azimuth Distance (km) Brightness Sun altitude
Rises 22:16:54 0° 236° (SW) 2,418 7.0 -14.2°
Reaches altitude 10° 22:18:44 10° 232° (SW) 1,478 5.9 -14.3°
Maximum altitude 22:21:25 61° 150° (SSE) 529 3.4 -14.5°
Drops below altitude 10° 22:25:32 10° 69° (ENE) 2,262 6.9 -14.7°
Sets 22:29:06 0° 67° (ENE) 4,023 8.3 -14.9°
